Location: Caltech
(34.1382°N, 118.1253°W)
Time: 09:18:35
(UTC-07:00)

Gbstr 26 Del rocket - Visible Passes

Search period start: 22 June 2017 00:00
Search period end: 02 July 2017 00:00
Orbit: 493 x 1266 km, 51.8° (Epoch: 21 June)

Date Brightness Start Highest point End Pass type
(mag) Time Alt. Az. Time Alt. Az. Time Alt. Az.
22 Jun 3.0 04:18:28 25° SSW 04:20:24 53° SE 04:24:06 10° NE visible
23 Jun 2.6 04:14:23 31° SW 04:16:04 79° SE 04:19:50 10° NE visible
24 Jun 2.6 04:10:14 34° WSW 04:11:45 73° NW 04:15:30 10° NE visible
25 Jun 3.1 04:06:03 32° W 04:07:27 51° NW 04:11:08 10° NE visible
26 Jun 5.6 02:19:16 10° E 02:19:16 10° E 02:19:16 10° E visible
26 Jun 3.6 04:01:49 27° W 04:03:11 37° NW 04:06:42 10° NNE visible
27 Jun 5.5 02:15:00 12° ENE 02:15:00 12° ENE 02:15:23 10° ENE visible
27 Jun 4.1 03:57:33 22° WNW 03:58:56 28° NW 04:02:13 10° NNE visible
28 Jun 5.4 02:10:41 14° ENE 02:10:41 14° ENE 02:11:20 10° ENE visible
28 Jun 4.5 03:53:14 17° WNW 03:54:43 22° NNW 03:57:41 10° NNE visible
29 Jun 5.3 02:06:20 16° ENE 02:06:20 16° ENE 02:07:10 10° NE visible
29 Jun 4.9 03:48:52 14° WNW 03:50:32 17° NNW 03:53:07 10° NNE visible
30 Jun 5.3 02:01:57 17° NE 02:01:57 17° NE 02:02:55 10° NE visible
30 Jun 5.2 03:44:29 11° WNW 03:46:22 14° NNW 03:48:27 10° N visible
01 Jul 5.2 01:57:31 18° NE 01:57:31 18° NE 01:58:36 10° NE visible
01 Jul 5.3 03:40:48 10° NW 03:42:13 12° NNW 03:43:37 10° N visible
